When you browse on this site, cookies collect data to enhance your experience and personalize the content and advertising you see.
Visit our Privacy Policy to learn more. By continuing to use the site, you agree to this use of cookies and data.
  • In Slovakia
  • List of Countries
  • For 7 days
  • Water Temperature
  • Satellite Maps
  • Weather Map
  • Weather Widgets
  • user-avatar
    Login

    Hourly Weather Idzhewan

    Today, 22 January, Tuesday

    Time Temperature Precipitation Wind Pressure Humidity
    00:00 -2°C° 0 mm 3 mps 694 mmHg 55%
    01:00 -2°C° 0 mm 3 mps 694 mmHg 56%
    02:00 -2°C° 0 mm 3 mps 694 mmHg 56%
    03:00 -2°C° 0 mm 4 mps 693 mmHg 53%
    04:00 -2°C° 0 mm 4 mps 693 mmHg 54%
    05:00 -2°C° 0 mm 4 mps 693 mmHg 55%
    06:00 -2°C° 0 mm 4 mps 693 mmHg 57%
    07:00 -1°C° 0 mm 3 mps 693 mmHg 56%
    08:00 0°C° 0 mm 3 mps 693 mmHg 56%
    09:00 +2°C° 0 mm 3 mps 693 mmHg 54%
    10:00 +3°C° 0 mm 3 mps 693 mmHg 53%
    11:00 +5°C° 0 mm 2 mps 693 mmHg 51%
    12:00 +6°C° 0 mm 2 mps 693 mmHg 49%
    13:00 +6°C° 0 mm 2 mps 692 mmHg 51%
    14:00 +7°C° 0 mm 1 mps 692 mmHg 52%
    15:00 +7°C° 0 mm 1 mps 692 mmHg 53%
    16:00 +6°C° 0 mm 1 mps 692 mmHg 56%
    17:00 +3°C° 0 mm 2 mps 693 mmHg 60%
    18:00 +2°C° 0 mm 2 mps 693 mmHg 63%
    19:00 +1°C° 0 mm 2 mps 693 mmHg 63%
    20:00 0°C° 0 mm 3 mps 693 mmHg 62%
    21:00 0°C° 0 mm 3 mps 693 mmHg 61%
    22:00 -1°C° 0 mm 3 mps 693 mmHg 60%
    23:00 -1°C° 0 mm 3 mps 693 mmHg 60%

    Tomorrow, 23 January, Wednesday

    Time Temperature Precipitation Wind Pressure Humidity
    00:00 -1°C° 0 mm 3 mps 694 mmHg 59%
    01:00 -1°C° 0 mm 3 mps 694 mmHg 60%
    02:00 -1°C° 0 mm 3 mps 694 mmHg 60%
    03:00 -1°C° 0 mm 2 mps 694 mmHg 60%
    04:00 -2°C° 0 mm 2 mps 694 mmHg 60%
    05:00 -2°C° 0 mm 2 mps 694 mmHg 61%
    06:00 -2°C° 0 mm 2 mps 694 mmHg 61%
    07:00 -1°C° 0 mm 2 mps 694 mmHg 61%
    08:00 +1°C° 0 mm 2 mps 695 mmHg 60%
    09:00 +2°C° 0 mm 2 mps 695 mmHg 59%
    10:00 +4°C° 0 mm 1 mps 695 mmHg 58%
    11:00 +5°C° 0 mm 1 mps 695 mmHg 56%
    12:00 +6°C° 0 mm 1 mps 695 mmHg 55%
    13:00 +6°C° 0 mm 1 mps 694 mmHg 56%
    14:00 +6°C° 0 mm 1 mps 694 mmHg 57%
    15:00 +6°C° 0 mm 1 mps 694 mmHg 58%
    16:00 +5°C° 0 mm 1 mps 694 mmHg 62%
    17:00 +3°C° 0 mm 1 mps 694 mmHg 67%
    18:00 +2°C° 0 mm 1 mps 695 mmHg 72%
    19:00 +2°C° 0 mm 1 mps 695 mmHg 70%
    20:00 +2°C° 0 mm 1 mps 695 mmHg 69%
    21:00 +1°C° 0 mm 1 mps 695 mmHg 68%
    22:00 +1°C° 0 mm 1 mps 695 mmHg 68%
    23:00 +1°C° 0 mm 1 mps 695 mmHg 68%

    Day after tomorrow, 24 January, Thursday

    Time Temperature Precipitation Wind Pressure Humidity
    00:00 +1°C° 0 mm 1 mps 695 mmHg 67%
    01:00 +1°C° 0 mm 1 mps 695 mmHg 67%
    02:00 -1°C° 0 mm 2 mps 695 mmHg 67%
    03:00 -2°C° 0 mm 2 mps 695 mmHg 67%
    04:00 -2°C° 0 mm 2 mps 695 mmHg 67%
    05:00 -2°C° 0 mm 2 mps 695 mmHg 67%
    06:00 -2°C° 0 mm 2 mps 695 mmHg 67%
    07:00 -1°C° 0 mm 2 mps 695 mmHg 65%
    08:00 +1°C° 0 mm 2 mps 696 mmHg 63%
    09:00 +2°C° 0 mm 2 mps 696 mmHg 61%
    10:00 +3°C° 0 mm 2 mps 695 mmHg 58%
    11:00 +6°C° 0 mm 1 mps 695 mmHg 56%
    12:00 +7°C° 0 mm 1 mps 695 mmHg 53%
    13:00 +7°C° 0 mm 1 mps 694 mmHg 53%
    14:00 +7°C° 0 mm 1 mps 694 mmHg 54%
    15:00 +8°C° 0 mm 1 mps 694 mmHg 54%
    16:00 +7°C° 0 mm 1 mps 694 mmHg 58%
    17:00 +4°C° 0 mm 2 mps 694 mmHg 62%
    18:00 +3°C° 0 mm 2 mps 694 mmHg 65%
    19:00 +3°C° 0 mm 2 mps 694 mmHg 65%
    20:00 +3°C° 0 mm 2 mps 694 mmHg 65%
    21:00 +2°C° 0 mm 2 mps 694 mmHg 64%
    22:00 +2°C° 0 mm 2 mps 694 mmHg 64%
    23:00 +1°C° 0 mm 3 mps 694 mmHg 63%

    25 January, Friday

    Time Temperature Precipitation Wind Pressure Humidity
    00:00 +1°C° 0 mm 3 mps 694 mmHg 62%
    01:00 +1°C° 0 mm 3 mps 693 mmHg 62%
    02:00 +2°C° 0 mm 2 mps 693 mmHg 61%
    03:00 +3°C° 0 mm 2 mps 693 mmHg 61%
    04:00 +3°C° 0 mm 2 mps 692 mmHg 61%
    05:00 +2°C° 0 mm 3 mps 692 mmHg 61%
    06:00 +2°C° 0 mm 3 mps 692 mmHg 61%
    07:00 +3°C° 0 mm 3 mps 692 mmHg 62%
    08:00 +3°C° 0 mm 3 mps 692 mmHg 63%
    09:00 +3°C° 0 mm 3 mps 692 mmHg 64%
    10:00 +5°C° 0 mm 3 mps 692 mmHg 61%
    11:00 +7°C° 0 mm 2 mps 692 mmHg 59%
    12:00 +8°C° 0 mm 2 mps 692 mmHg 56%
    13:00 +8°C° 0 mm 2 mps 691 mmHg 56%
    14:00 +8°C° 0 mm 2 mps 691 mmHg 55%
    15:00 +9°C° 0 mm 1 mps 691 mmHg 55%
    16:00 +7°C° 0 mm 2 mps 691 mmHg 59%
    17:00 +6°C° 0 mm 2 mps 691 mmHg 62%
    18:00 +4°C° 0 mm 2 mps 691 mmHg 66%
    19:00 +3°C° 0 mm 3 mps 692 mmHg 65%
    20:00 +3°C° 0 mm 3 mps 692 mmHg 65%
    21:00 +2°C° 0 mm 3 mps 692 mmHg 64%
    22:00 +2°C° 0 mm 3 mps 692 mmHg 63%
    23:00 +2°C° 0 mm 3 mps 692 mmHg 63%

    26 January, Saturday

    Time Temperature Precipitation Wind Pressure Humidity
    00:00 +2°C° 0 mm 3 mps 692 mmHg 62%
    01:00 +2°C° 0 mm 3 mps 692 mmHg 62%
    02:00 +2°C° 0 mm 3 mps 691 mmHg 62%
    03:00 +2°C° 0 mm 3 mps 691 mmHg 62%
    04:00 +2°C° 0 mm 3 mps 691 mmHg 62%
    05:00 +2°C° 0 mm 3 mps 691 mmHg 63%
    06:00 +2°C° 0 mm 3 mps 691 mmHg 63%
    07:00 +2°C° 0 mm 3 mps 691 mmHg 61%
    08:00 +3°C° 0 mm 3 mps 691 mmHg 60%
    09:00 +4°C° 0 mm 3 mps 691 mmHg 58%
    10:00 +6°C° 0 mm 2 mps 691 mmHg 54%
    11:00 +8°C° 0 mm 2 mps 691 mmHg 51%
    12:00 +9°C° 0 mm 2 mps 691 mmHg 47%
    13:00 +9°C° 0 mm 2 mps 690 mmHg 47%
    14:00 +10°C° 0 mm 2 mps 690 mmHg 47%
    15:00 +10°C° 0 mm 2 mps 690 mmHg 47%
    16:00 +8°C° 0 mm 2 mps 690 mmHg 52%
    17:00 +7°C° 0 mm 2 mps 690 mmHg 57%
    18:00 +6°C° 0 mm 2 mps 690 mmHg 62%
    19:00 +5°C° 0 mm 2 mps 690 mmHg 62%
    20:00 +4°C° 0 mm 3 mps 689 mmHg 63%
    21:00 +4°C° 0 mm 3 mps 689 mmHg 63%
    22:00 +4°C° 0 mm 3 mps 689 mmHg 65%
    23:00 +5°C° 0 mm 2 mps 689 mmHg 66%

    27 January, Sunday

    Time Temperature Precipitation Wind Pressure Humidity
    00:00 +5°C° 0 mm 2 mps 688 mmHg 68%
    01:00 +5°C° 0.1 mm 2 mps 688 mmHg 69%
    02:00 +5°C° 0.1 mm 2 mps 688 mmHg 71%
    03:00 +6°C° 0.1 mm 2 mps 688 mmHg 73%
    04:00 +5°C° 0 mm 2 mps 688 mmHg 73%
    05:00 +5°C° 0 mm 2 mps 688 mmHg 74%
    06:00 +5°C° 0 mm 2 mps 688 mmHg 75%
    07:00 +5°C° 0 mm 2 mps 688 mmHg 72%
    08:00 +7°C° 0 mm 1 mps 688 mmHg 70%
    09:00 +7°C° 0 mm 1 mps 688 mmHg 67%
    10:00 +8°C° 0 mm 1 mps 688 mmHg 64%
    11:00 +10°C° 0 mm 1 mps 688 mmHg 60%
    12:00 +11°C° 0 mm 1 mps 687 mmHg 57%
    13:00 +11°C° 0 mm 1 mps 687 mmHg 57%
    14:00 +11°C° 0 mm 1 mps 686 mmHg 57%
    15:00 +11°C° 0 mm 1 mps 686 mmHg 57%
    16:00 +10°C° 0 mm 1 mps 686 mmHg 62%
    17:00 +8°C° 0 mm 1 mps 686 mmHg 67%
    18:00 +7°C° 0 mm 1 mps 687 mmHg 72%
    19:00 +7°C° 0 mm 1 mps 687 mmHg 72%
    20:00 +6°C° 0 mm 2 mps 687 mmHg 72%
    21:00 +5°C° 0 mm 2 mps 687 mmHg 71%
    22:00 +5°C° 0 mm 2 mps 687 mmHg 72%
    23:00 +5°C° 0 mm 2 mps 687 mmHg 72%
    Show more